Weather History for Plattsmouth, NE

Change the Weather History Date:

Thursday, February 7, 2013

  Actual Average (KOFF) Record (KOFF)
Temperature  
Mean Temperature 36 °F -  
Max Temperature 43 °F 35 °F 59 °F (2009)
Min Temperature 30 °F 17 °F -4 °F (2014)
Degree Days  
Heating Degree Days 28    
Moisture  
Dew Point 30 °F    
Average Humidity 83    
Maximum Humidity 90    
Minimum Humidity 76    
Precipitation  
Precipitation 0.00 in - - ()
Sea Level Pressure  
Sea Level Pressure 30.04 in    
Wind  
Wind Speed 9 mph (NNW)    
Max Wind Speed 23 mph    
Max Gust Speed 28 mph    
Visibility 8 miles    
Events Thunderstorm    
Averages and records for this station are not official NWS values.
T = Trace of Precipitation, MM = Missing Value Source: NWS Daily Summary

Daily Weather History Graph

Daily Weather History Graph

Search for Another Location

Airport:

Trip Planner

Search our weather history database for the weather conditions in past years. The results will help you decide how hot, cold, wet, or windy it might be!

Date:

Astronomy

Feb. 07, 2013 Rise Set
Actual Time 7:27 AM CST 5:48 PM CST
Civil Twilight 6:58 AM CST 6:17 PM CST
Nautical Twilight 6:26 AM CST 6:49 PM CST
Astronomical Twilight 5:54 AM CST 7:21 PM CST
Moon 5:08 AM CST (2/7) 3:13 PM CST (2/7)
Length of Visible Light 11h 18m
Length of Day
10h 21m
Waning Crescent, 9% of the Moon is Illuminated
Feb 7
Waning Crescent
Feb 10
New
Feb 17
First Quarter
Feb 25
Full
Mar 4
Last Quarter

Hourly Weather History & Observations

Time (CST) Temp. Windchill Dew Point Humidity Pressure Visibility Wind Dir Wind Speed Gust Speed Precip Events Conditions
12:35 AM 43.9 °F - 36.9 °F 76% 29.87 in 10.0 mi Calm Calm - N/A Thunderstorm Overcast
12:55 AM 42.6 °F - 37.0 °F 81% 29.87 in 10.0 mi Calm Calm - N/A   Overcast
1:15 AM 43.7 °F - 37.2 °F 78% 29.87 in 10.0 mi Calm Calm - N/A   Overcast
1:35 AM 40.1 °F - 36.5 °F 87% 29.86 in 10.0 mi Calm Calm - N/A   Overcast
1:55 AM 39.7 °F - 35.8 °F 86% 29.87 in 10.0 mi Calm Calm - N/A   Mostly Cloudy
2:15 AM 38.7 °F 34.3 °F 35.8 °F 89% 29.88 in 10.0 mi WNW 5.8 mph - N/A   Mostly Cloudy
2:35 AM 39.7 °F 33.7 °F 36.1 °F 87% 29.88 in 10.0 mi NW 9.2 mph - N/A   Overcast
2:55 AM 39.9 °F 35.8 °F 35.8 °F 85% 29.88 in 10.0 mi NW 5.8 mph - N/A   Overcast
3:15 AM 38.3 °F 31.4 °F 34.9 °F 87% 29.88 in 10.0 mi NW 10.4 mph - N/A   Scattered Clouds
3:35 AM 37.9 °F 32.1 °F 34.7 °F 88% 29.87 in 10.0 mi NW 8.1 mph - N/A   Clear
3:55 AM 38.8 °F 33.8 °F 34.9 °F 86% 29.87 in 10.0 mi NNW 6.9 mph - N/A   Clear
4:15 AM 37.9 °F 30.5 °F 34.7 °F 88% 29.87 in 10.0 mi NW 11.5 mph - N/A   Clear
4:35 AM 36.7 °F 28.9 °F 33.8 °F 89% 29.88 in 10.0 mi NW 11.5 mph - N/A   Clear
4:55 AM 36.5 °F 28.7 °F 33.4 °F 89% 29.89 in 7.0 mi NW 11.5 mph - N/A   Scattered Clouds
5:15 AM 36.5 °F 29.2 °F 33.4 °F 89% 29.90 in 10.0 mi NW 10.4 mph - N/A   Scattered Clouds
5:35 AM 37.2 °F 29.6 °F 33.8 °F 87% 29.91 in 10.0 mi NW 11.5 mph - N/A   Mostly Cloudy
5:55 AM 37.9 °F 30.0 °F 33.4 °F 84% 29.91 in 10.0 mi NNW 12.7 mph - N/A   Overcast
6:15 AM 37.9 °F 30.0 °F 33.1 °F 83% 29.91 in 10.0 mi NNW 12.7 mph - N/A   Overcast
6:35 AM 37.8 °F 29.8 °F 32.9 °F 83% 29.92 in 10.0 mi NNW 12.7 mph - N/A   Overcast
6:55 AM 37.0 °F 30.4 °F 32.5 °F 84% 29.92 in 10.0 mi NNW 9.2 mph - N/A   Overcast
7:15 AM 36.5 °F 28.2 °F 32.4 °F 85% 29.94 in 10.0 mi NNW 12.7 mph - N/A   Overcast
7:35 AM 36.3 °F 27.5 °F 32.4 °F 86% 29.95 in 10.0 mi NNW 13.8 mph 19.6 mph N/A   Overcast
7:55 AM 35.8 °F 27.3 °F 32.2 °F 87% 29.97 in 10.0 mi NNW 12.7 mph - N/A   Overcast
8:15 AM 35.6 °F 27.5 °F 32.0 °F 87% 29.98 in 10.0 mi NNW 11.5 mph - N/A   Mostly Cloudy
8:35 AM 35.2 °F 27.6 °F 32.0 °F 88% 29.99 in 10.0 mi NNW 10.4 mph - N/A   Mostly Cloudy
8:55 AM 34.9 °F 24.6 °F 32.0 °F 89% 30.00 in 7.0 mi NW 17.3 mph 21.9 mph N/A   Mostly Cloudy
9:15 AM 34.7 °F 25.9 °F 32.0 °F 90% 30.01 in 7.0 mi NNW 12.7 mph 21.9 mph N/A   Overcast
9:35 AM 34.7 °F 25.1 °F 32.0 °F 90% 30.01 in 7.0 mi NNW 15.0 mph 21.9 mph N/A   Scattered Clouds
9:55 AM 35.1 °F 25.5 °F 32.0 °F 89% 30.02 in 7.0 mi NNW 15.0 mph 19.6 mph N/A   Mostly Cloudy
10:15 AM 35.1 °F 24.8 °F 32.0 °F 89% 30.03 in 7.0 mi NNW 17.3 mph 25.3 mph N/A   Overcast
10:35 AM 35.6 °F 26.2 °F 32.0 °F 87% 30.04 in 5.0 mi NNW 15.0 mph 19.6 mph N/A   Overcast
10:55 AM 35.1 °F 24.5 °F 31.6 °F 87% 30.05 in 4.0 mi NNW 18.4 mph 26.5 mph N/A   Overcast
11:15 AM 36.5 °F 26.3 °F 32.0 °F 84% 30.05 in 4.0 mi NNW 18.4 mph 23.0 mph N/A   Scattered Clouds
11:35 AM 36.9 °F 26.2 °F 31.8 °F 82% 30.05 in 4.0 mi NW 20.7 mph 24.2 mph N/A   Haze
11:55 AM 36.9 °F 26.5 °F 31.3 °F 80% 30.05 in 5.0 mi NNW 19.6 mph 26.5 mph N/A   Haze
12:15 PM 36.9 °F 25.6 °F 31.1 °F 80% 30.05 in 5.0 mi NW 23.0 mph 27.6 mph N/A   Haze
12:35 PM 37.9 °F 27.9 °F 31.3 °F 77% 30.05 in 5.0 mi NNW 19.6 mph 26.5 mph N/A   Haze
12:55 PM 36.9 °F 26.5 °F 30.6 °F 78% 30.05 in 4.0 mi NNW 19.6 mph 24.2 mph N/A   Haze
1:15 PM 36.3 °F 26.1 °F 30.6 °F 80% 30.05 in 4.0 mi NNW 18.4 mph 24.2 mph N/A   Haze
1:35 PM 34.7 °F 23.7 °F 29.8 °F 82% 30.06 in 4.0 mi NNW 19.6 mph 23.0 mph N/A   Haze
1:55 PM 34.3 °F 24.6 °F 29.8 °F 84% 30.06 in 4.0 mi NNW 15.0 mph 25.3 mph N/A   Overcast
2:15 PM 34.2 °F 24.4 °F 30.0 °F 85% 30.06 in 3.0 mi NNW 15.0 mph 23.0 mph N/A   Overcast
2:35 PM 33.8 °F 23.9 °F 29.5 °F 84% 30.06 in 5.0 mi NNW 15.0 mph 24.2 mph N/A   Haze
2:55 PM 33.8 °F 23.2 °F 29.1 °F 83% 30.07 in 7.0 mi NNW 17.3 mph 24.2 mph N/A   Overcast
3:15 PM 33.8 °F 22.8 °F 28.4 °F 81% 30.07 in 5.0 mi NNW 18.4 mph 24.2 mph N/A   Haze
3:35 PM 33.8 °F 23.2 °F 28.8 °F 82% 30.08 in 5.0 mi NNW 17.3 mph 23.0 mph N/A   Haze
3:55 PM 33.8 °F 23.9 °F 28.4 °F 81% 30.08 in 5.0 mi NNW 15.0 mph 20.7 mph N/A   Haze
4:15 PM 33.8 °F 24.8 °F 28.2 °F 80% 30.09 in 5.0 mi NNW 12.7 mph 21.9 mph N/A   Haze
4:35 PM 33.6 °F 23.3 °F 28.2 °F 81% 30.09 in 5.0 mi NNW 16.1 mph 21.9 mph N/A   Haze
4:55 PM 33.1 °F 24.9 °F 28.0 °F 82% 30.11 in 5.0 mi NNW 10.4 mph 20.7 mph N/A   Haze
5:15 PM 32.5 °F 21.2 °F 27.5 °F 82% 30.11 in 5.0 mi NNW 18.4 mph 21.9 mph N/A   Haze
5:35 PM 32.0 °F 22.5 °F 27.1 °F 82% 30.13 in 5.0 mi NNW 12.7 mph 19.6 mph N/A   Haze
5:55 PM 32.0 °F 23.6 °F 26.6 °F 80% 30.14 in 5.0 mi NNW 10.4 mph - N/A   Haze
6:15 PM 32.0 °F 23.0 °F 26.6 °F 80% 30.14 in 7.0 mi NNW 11.5 mph 17.3 mph N/A   Overcast
6:35 PM 31.8 °F 23.9 °F 26.4 °F 80% 30.16 in 7.0 mi NNW 9.2 mph 17.3 mph N/A   Overcast
6:55 PM 31.8 °F 22.8 °F 25.7 °F 78% 30.16 in 7.0 mi North 11.5 mph 19.6 mph N/A   Overcast
7:15 PM 31.8 °F 23.9 °F 25.7 °F 78% 30.17 in 10.0 mi North 9.2 mph 17.3 mph N/A   Overcast
7:35 PM 31.8 °F 24.6 °F 25.7 °F 78% 30.18 in 7.0 mi North 8.1 mph - N/A   Overcast
7:55 PM 31.8 °F 23.3 °F 25.9 °F 79% 30.18 in 7.0 mi North 10.4 mph 16.1 mph N/A   Overcast
8:15 PM 31.6 °F 25.1 °F 25.9 °F 79% 30.19 in 7.0 mi North 6.9 mph - N/A   Overcast
8:35 PM 31.5 °F 22.3 °F 25.7 °F 79% 30.20 in 7.0 mi North 11.5 mph 17.3 mph N/A   Overcast
8:55 PM 31.1 °F 21.4 °F 25.3 °F 79% 30.20 in 7.0 mi North 12.7 mph - N/A   Overcast
9:15 PM 31.1 °F 23.7 °F 25.3 °F 79% 30.21 in 7.0 mi North 8.1 mph - N/A   Overcast
9:35 PM 31.1 °F 23.1 °F 25.0 °F 78% 30.21 in 7.0 mi North 9.2 mph - N/A   Overcast
9:55 PM 30.9 °F 22.8 °F 25.2 °F 79% 30.21 in 7.0 mi North 9.2 mph - N/A   Overcast
10:15 PM 30.9 °F 24.3 °F 25.2 °F 79% 30.22 in 7.0 mi North 6.9 mph - N/A   Overcast
10:35 PM 30.7 °F 23.3 °F 24.6 °F 78% 30.22 in 7.0 mi NNW 8.1 mph - N/A   Overcast
10:55 PM 30.6 °F 23.1 °F 24.8 °F 79% 30.23 in 10.0 mi NNW 8.1 mph - N/A   Overcast
11:15 PM 30.6 °F 23.1 °F 24.4 °F 78% 30.23 in 10.0 mi NNW 8.1 mph - N/A   Overcast
11:35 PM 30.6 °F 25.8 °F 24.1 °F 77% 30.24 in 10.0 mi North 4.6 mph - N/A   Overcast
11:55 PM 30.2 °F 23.4 °F 23.7 °F 77% 30.24 in 10.0 mi North 6.9 mph - N/A   Overcast